カタログに戻る

QIANFAN-142

運用中通信PO
NORAD 69088·PAYLOAD·🇨🇳 China

打ち上げ May 12, 2026 から Taiyuan Satellite Launch Center

Loading…

次のパス (今後24時間)

TLE

最新Source: Space-Track

元期: Sep 14, 2026, 14:16 UTC

1 69088U 26104R   26257.59487325  .00000119  00000-0  16634-3 0  9993
2 69088  88.9903 332.3171 0002439 109.7285 250.4130 13.51030778 17244

AllMySatでQIANFAN-142をリアルタイム追跡

Download on the App Store